contact:dominique.lefevre@mio.osupytheas.fr, maurice.libes@osupytheas.fr, didier.mallarino@osupytheas.fr
Project:EMSO http://www.emso-fr.org/EMSO-France
Depth: 2436.0 m
Title:EMSO Ligure Ouest : Data MII capteur AQUADOPP
Date,Latitude,Longitude,X_East,Y_North,Z_Up,Amplitude_X,Amplitude_Y,Amplitude_Z,Batterie,SoundSpeed,Heading,Pitch,Roll,Pressure,TIS,Speed,Direction
, degrees North, degrees East, m.s-1, m.s-1,m.s-1, 1, 1, 1, Volt, m.s-1, degree, degree, degree, dbar, degree_C, m.s-1, degree
2022-09-29T00:04:04,42.805,6.029,-0.044,-0.006,0.004,103.0,102.0,101.0,13.4,1505.2,318.9,-0.8,1.8,2470.893,13.29,0.044,262.2
2022-09-29T00:07:03,42.805,6.029,-0.005,-0.011,-0.006,101.0,101.0,100.0,13.3,1505.2,326.6,-0.8,1.8,2470.87,13.29,0.012,204.4
2022-09-29T00:10:03,42.805,6.029,-0.013,0.007,0.007,101.0,101.0,100.0,13.3,1505.2,329.4,-0.8,1.8,2470.885,13.29,0.014,298.3
2022-09-29T00:13:03,42.805,6.029,-0.001,0.008,0.047,102.0,102.0,99.0,13.4,1505.2,325.3,-0.8,1.8,2470.856,13.29,0.008,352.9
2022-09-29T00:16:03,42.805,6.029,-0.027,0.0,0.019,102.0,102.0,100.0,13.4,1505.2,320.9,-0.8,1.8,2470.817,13.29,0.026,270.0
2022-09-29T00:19:03,42.805,6.029,-0.037,-0.004,0.02,101.0,101.0,101.0,13.3,1505.2,329.9,-0.7,1.8,2470.849,13.29,0.037,263.8
2022-09-29T00:22:03,42.805,6.029,-0.013,-0.01,0.02,102.0,100.0,100.0,13.3,1505.2,326.3,-0.8,1.8,2470.829,13.29,0.016,232.4
2022-09-29T00:25:03,42.805,6.029,-0.01,0.009,0.03,103.0,101.0,102.0,13.3,1505.2,333.1,-0.8,1.8,2470.837,13.29,0.013,312.0
2022-09-29T00:28:03,42.805,6.029,-0.02,-0.009,-0.003,101.0,101.0,100.0,13.3,1505.2,327.8,-0.8,1.8,2470.819,13.29,0.021,245.8
2022-09-29T00:31:03,42.805,6.029,-0.018,0.008,0.016,101.0,103.0,99.0,13.4,1505.2,328.3,-0.7,1.8,2470.852,13.29,0.019,294.0
2022-09-29T00:34:03,42.805,6.029,-0.04,0.028,0.039,102.0,101.0,100.0,13.4,1505.2,321.8,-0.8,1.8,2470.815,13.29,0.048,305.0
2022-09-29T00:37:03,42.805,6.029,-0.021,0.018,0.045,103.0,100.0,100.0,13.4,1505.2,325.7,-0.8,1.8,2470.815,13.29,0.027,310.6
2022-09-29T00:40:03,42.805,6.029,-0.035,-0.009,-0.015,101.0,101.0,100.0,13.4,1505.2,322.9,-0.8,1.9,2470.792,13.29,0.036,255.6
2022-09-29T00:43:03,42.805,6.029,-0.013,-0.009,0.004,101.0,102.0,100.0,13.4,1505.2,322.4,-0.7,1.8,2470.823,13.29,0.015,235.3
2022-09-29T00:46:03,42.805,6.029,-0.029,-0.017,0.021,102.0,100.0,100.0,13.3,1505.2,323.4,-0.7,1.8,2470.777,13.29,0.033,239.6
2022-09-29T00:49:03,42.805,6.029,-0.027,-0.003,-0.009,102.0,103.0,99.0,13.4,1505.2,316.2,-0.7,1.8,2470.817,13.29,0.027,263.7
2022-09-29T00:52:03,42.805,6.029,-0.004,0.011,0.01,102.0,101.0,100.0,13.4,1505.2,318.0,-0.7,1.8,2470.773,13.29,0.011,340.0
2022-09-29T00:55:03,42.805,6.029,-0.033,-0.003,0.037,101.0,102.0,99.0,13.4,1505.2,320.7,-0.8,1.9,2470.817,13.29,0.033,264.8
2022-09-29T00:58:03,42.805,6.029,-0.044,0.0,-0.006,99.0,103.0,101.0,13.3,1505.2,328.9,-0.8,1.8,2470.832,13.29,0.044,270.0
2022-09-29T01:04:03,42.805,6.029,-0.022,0.005,0.001,103.0,102.0,102.0,13.4,1505.2,322.3,-0.8,1.8,2470.822,13.29,0.022,282.8
2022-09-29T01:07:04,42.805,6.029,-0.017,-0.006,0.016,101.0,101.0,100.0,13.4,1505.2,325.2,-0.8,1.8,2470.837,13.29,0.018,250.6
2022-09-29T01:10:03,42.805,6.029,-0.012,0.003,0.007,102.0,101.0,100.0,13.3,1505.2,329.8,-0.7,1.8,2470.814,13.29,0.012,284.0
2022-09-29T01:13:03,42.805,6.029,-0.033,-0.003,0.0,101.0,101.0,100.0,13.4,1505.2,322.6,-0.8,1.8,2470.817,13.29,0.033,264.8
2022-09-29T01:16:03,42.805,6.029,-0.036,0.016,0.046,101.0,102.0,100.0,13.3,1505.2,322.6,-0.8,1.8,2470.805,13.29,0.039,294.0
2022-09-29T01:19:03,42.805,6.029,-0.015,0.008,0.003,101.0,102.0,100.0,13.4,1505.2,326.6,-0.8,1.8,2470.794,13.29,0.017,298.1
2022-09-29T01:22:02,42.805,6.029,-0.034,0.016,0.017,101.0,103.0,99.0,13.4,1505.2,329.8,-0.7,1.9,2470.824,13.29,0.037,295.2
2022-09-29T01:25:03,42.805,6.029,-0.005,0.012,0.03,101.0,101.0,100.0,13.3,1505.2,321.5,-0.8,1.8,2470.758,13.29,0.013,337.4
2022-09-29T01:28:03,42.805,6.029,0.006,-0.007,-0.01,102.0,102.0,100.0,13.3,1505.2,320.2,-0.8,1.8,2470.771,13.29,0.009,139.4
2022-09-29T01:31:03,42.805,6.029,-0.011,-0.003,-0.008,103.0,102.0,99.0,13.3,1505.2,320.6,-0.7,1.8,2470.774,13.29,0.011,254.7
2022-09-29T01:34:02,42.805,6.029,0.008,-0.022,0.008,101.0,102.0,100.0,13.3,1505.2,327.4,-0.7,1.8,2470.796,13.29,0.023,160.0
2022-09-29T01:37:02,42.805,6.029,0.002,0.005,0.025,102.0,101.0,100.0,13.4,1505.2,323.5,-0.8,1.8,2470.761,13.29,0.005,21.8
2022-09-29T01:40:02,42.805,6.029,-0.02,0.006,0.025,101.0,103.0,99.0,13.4,1505.2,326.8,-0.8,1.8,2470.766,13.29,0.02,286.7
2022-09-29T01:43:03,42.805,6.029,-0.031,0.013,-0.017,102.0,102.0,100.0,13.4,1505.2,329.9,-0.8,1.8,2470.753,13.29,0.033,292.7
2022-09-29T01:46:02,42.805,6.029,-0.02,-0.01,-0.016,99.0,101.0,102.0,13.4,1505.2,331.1,-0.8,1.8,2470.75,13.29,0.022,243.4
2022-09-29T01:49:02,42.805,6.029,0.0,-0.001,0.009,102.0,102.0,99.0,13.4,1505.2,329.7,-0.7,1.8,2470.751,13.29,0.001,180.0
2022-09-29T01:52:02,42.805,6.029,-0.017,0.005,-0.015,101.0,102.0,101.0,13.4,1505.2,325.7,-0.7,1.8,2470.769,13.29,0.017,286.4
2022-09-29T01:55:02,42.805,6.029,-0.01,0.009,0.032,103.0,100.0,102.0,13.4,1505.2,319.4,-0.8,1.8,2470.742,13.29,0.013,312.0
2022-09-29T01:58:02,42.805,6.029,-0.011,0.003,0.019,102.0,101.0,100.0,13.4,1505.2,324.0,-0.8,1.8,2470.748,13.29,0.011,285.3
2022-09-29T02:04:02,42.805,6.029,0.001,0.004,0.019,101.0,102.0,101.0,13.4,1505.2,328.6,-0.8,1.8,2470.766,13.29,0.004,14.0
2022-09-29T02:07:02,42.805,6.029,-0.02,0.031,0.02,102.0,100.0,100.0,13.4,1505.2,322.7,-0.8,1.9,2470.761,13.29,0.036,327.2
2022-09-29T02:10:02,42.805,6.029,-0.003,0.006,0.021,100.0,100.0,101.0,13.4,1505.2,328.7,-0.8,1.8,2470.778,13.29,0.006,333.4
2022-09-29T02:13:02,42.805,6.029,-0.013,-0.006,0.002,100.0,103.0,100.0,13.4,1505.2,330.9,-0.7,1.8,2470.772,13.29,0.014,245.2
2022-09-29T02:16:02,42.805,6.029,0.001,0.001,0.013,102.0,101.0,99.0,13.4,1505.2,323.0,-0.7,1.8,2470.758,13.29,0.001,45.0
2022-09-29T02:19:03,42.805,6.029,0.001,0.023,0.037,101.0,101.0,100.0,13.4,1505.2,318.2,-0.7,1.8,2470.742,13.29,0.023,2.5
2022-09-29T02:22:02,42.805,6.029,-0.025,-0.007,-0.014,101.0,102.0,100.0,13.3,1505.2,329.2,-0.7,1.8,2470.707,13.29,0.025,254.4
2022-09-29T02:25:02,42.805,6.029,-0.016,0.014,0.014,101.0,102.0,100.0,13.3,1505.2,322.9,-0.7,1.8,2470.746,13.29,0.021,311.2
2022-09-29T02:28:03,42.805,6.029,-0.023,-0.003,0.02,100.0,102.0,101.0,13.4,1505.2,327.0,-0.8,1.8,2470.777,13.29,0.023,262.6
2022-09-29T02:31:02,42.805,6.029,-0.013,-0.014,0.004,102.0,102.0,100.0,13.4,1505.2,322.7,-0.8,1.8,2470.758,13.29,0.019,222.9
2022-09-29T02:34:02,42.805,6.029,-0.018,0.001,0.008,102.0,101.0,101.0,13.4,1505.2,327.1,-0.7,1.8,2470.772,13.29,0.018,273.2
2022-09-29T02:37:02,42.805,6.029,-0.027,0.0,0.026,102.0,102.0,101.0,13.4,1505.2,317.8,-0.8,1.8,2470.73,13.29,0.026,270.0
2022-09-29T02:40:02,42.805,6.029,-0.02,-0.001,-0.007,101.0,102.0,100.0,13.3,1505.2,332.2,-0.8,1.8,2470.718,13.29,0.02,267.1
2022-09-29T02:43:02,42.805,6.029,-0.016,0.02,0.052,100.0,102.0,100.0,13.4,1505.2,329.9,-0.8,1.8,2470.747,13.29,0.025,321.3
2022-09-29T02:46:03,42.805,6.029,-0.013,0.011,0.028,101.0,102.0,102.0,13.4,1505.2,328.3,-0.7,1.8,2470.723,13.29,0.017,310.2
2022-09-29T02:49:03,42.805,6.029,-0.007,-0.006,-0.027,101.0,101.0,101.0,13.4,1505.2,325.3,-0.8,1.8,2470.778,13.29,0.009,229.4
2022-09-29T02:52:02,42.805,6.029,-0.006,-0.003,0.005,101.0,100.0,101.0,13.4,1505.2,321.1,-0.7,1.8,2470.729,13.29,0.006,243.4
2022-09-29T02:55:02,42.805,6.029,-0.001,0.009,0.019,102.0,101.0,100.0,13.4,1505.2,329.1,-0.8,1.8,2470.766,13.29,0.009,353.7
2022-09-29T02:58:03,42.805,6.029,-0.006,-0.01,0.019,102.0,101.0,101.0,13.4,1505.2,326.4,-0.7,1.8,2470.748,13.29,0.011,211.0
2022-09-29T03:04:03,42.805,6.029,-0.016,0.004,0.017,101.0,101.0,101.0,13.4,1505.2,332.5,-0.8,1.8,2470.759,13.29,0.016,284.0
2022-09-29T03:07:02,42.805,6.029,-0.023,0.0,-0.007,102.0,102.0,100.0,13.3,1505.2,329.6,-0.8,1.8,2470.771,13.29,0.023,270.0
2022-09-29T03:10:03,42.805,6.029,-0.026,-0.001,-0.03,101.0,103.0,100.0,13.3,1505.2,328.3,-0.8,1.8,2470.778,13.29,0.026,267.8
2022-09-29T03:13:03,42.805,6.029,-0.018,-0.012,0.023,102.0,102.0,99.0,13.3,1505.2,318.2,-0.8,1.8,2470.733,13.29,0.021,236.3
2022-09-29T03:16:03,42.805,6.029,-0.02,-0.007,0.024,100.0,100.0,101.0,13.4,1505.2,320.5,-0.7,1.8,2470.749,13.29,0.021,250.7
2022-09-29T03:19:03,42.805,6.029,-0.014,0.001,-0.013,102.0,101.0,100.0,13.4,1505.2,332.8,-0.8,1.8,2470.745,13.29,0.014,274.1
2022-09-29T03:22:02,42.805,6.029,-0.017,0.015,0.02,102.0,101.0,100.0,13.3,1505.2,334.0,-0.7,1.9,2470.756,13.29,0.022,311.4
2022-09-29T03:25:03,42.805,6.029,-0.016,-0.003,-0.032,102.0,101.0,100.0,13.4,1505.2,320.6,-0.7,1.8,2470.769,13.29,0.016,259.4
2022-09-29T03:28:03,42.805,6.029,-0.016,0.009,0.013,101.0,102.0,100.0,13.4,1505.2,318.6,-0.7,1.8,2470.721,13.29,0.018,299.4
2022-09-29T03:31:03,42.805,6.029,-0.019,0.019,0.039,101.0,101.0,101.0,13.4,1505.2,318.5,-0.7,1.8,2470.716,13.29,0.026,315.0
2022-09-29T03:34:03,42.805,6.029,-0.031,-0.005,-0.018,101.0,102.0,100.0,13.4,1505.2,319.8,-0.7,1.8,2470.773,13.29,0.031,260.8
2022-09-29T03:37:02,42.805,6.029,0.009,0.011,0.051,102.0,101.0,101.0,13.3,1505.2,333.4,-0.8,1.9,2470.73,13.29,0.014,39.3
2022-09-29T03:40:03,42.805,6.029,-0.009,0.003,0.002,102.0,101.0,100.0,13.4,1505.2,330.1,-0.8,1.8,2470.775,13.29,0.009,288.4
2022-09-29T03:43:03,42.805,6.029,0.005,-0.007,-0.003,102.0,102.0,100.0,13.4,1505.2,331.5,-0.8,1.8,2470.697,13.29,0.008,144.5
2022-09-29T03:46:03,42.805,6.029,-0.003,-0.007,0.043,102.0,104.0,99.0,13.4,1505.2,330.0,-0.7,1.8,2470.756,13.29,0.007,203.2
2022-09-29T03:49:03,42.805,6.029,-0.013,0.004,0.007,101.0,104.0,100.0,13.4,1505.2,318.8,-0.8,1.8,2470.763,13.29,0.013,287.1
2022-09-29T03:52:02,42.805,6.029,0.003,-0.002,0.046,102.0,101.0,101.0,13.4,1505.2,317.9,-0.7,1.8,2470.721,13.29,0.003,123.7
2022-09-29T03:55:03,42.805,6.029,-0.001,0.007,0.011,102.0,102.0,100.0,13.3,1505.2,321.2,-0.7,1.8,2470.746,13.29,0.007,351.9
2022-09-29T03:58:03,42.805,6.029,-0.02,-0.004,0.0,101.0,102.0,100.0,13.3,1505.2,330.7,-0.7,1.8,2470.756,13.29,0.02,258.7
2022-09-29T05:04:02,42.805,6.029,0.029,-0.011,0.018,102.0,102.0,101.0,13.3,1505.1,334.3,-0.8,1.8,2471.14,13.27,0.031,110.8
2022-09-29T05:07:02,42.805,6.029,-0.004,0.001,-0.002,101.0,101.0,101.0,13.3,1505.2,316.2,-0.8,1.8,2471.06,13.28,0.004,284.0
2022-09-29T05:10:03,42.805,6.029,-0.018,0.004,0.026,101.0,102.0,100.0,13.4,1505.2,326.6,-0.8,1.8,2471.022,13.28,0.018,282.5
2022-09-29T05:13:03,42.805,6.029,-0.005,0.006,0.01,102.0,102.0,100.0,13.4,1505.2,325.3,-0.8,1.8,2470.952,13.28,0.007,320.2
2022-09-29T05:16:03,42.805,6.029,-0.008,0.001,0.051,101.0,103.0,100.0,13.3,1505.2,329.4,-0.7,1.8,2470.904,13.29,0.008,277.1
2022-09-29T05:19:03,42.805,6.029,-0.012,0.002,0.006,101.0,102.0,101.0,13.3,1505.2,317.1,-0.8,1.8,2470.884,13.29,0.012,279.5
2022-09-29T05:22:02,42.805,6.029,0.001,0.015,0.024,101.0,102.0,101.0,13.4,1505.2,331.4,-0.7,1.8,2470.828,13.29,0.015,3.8
2022-09-29T05:25:03,42.805,6.029,-0.01,-0.013,0.016,100.0,102.0,101.0,13.3,1505.2,323.5,-0.8,1.8,2470.857,13.29,0.016,217.6
2022-09-29T05:28:03,42.805,6.029,-0.036,0.025,0.012,100.0,101.0,101.0,13.3,1505.2,329.4,-0.8,1.8,2470.802,13.29,0.043,304.8
2022-09-29T05:31:03,42.805,6.029,-0.025,0.009,0.003,101.0,102.0,100.0,13.4,1505.2,330.1,-0.7,1.8,2470.783,13.29,0.026,289.8
2022-09-29T05:34:03,42.805,6.029,-0.014,-0.006,0.002,101.0,103.0,99.0,13.4,1505.2,318.7,-0.7,1.8,2470.775,13.29,0.015,246.8
2022-09-29T05:37:02,42.805,6.029,-0.012,-0.006,-0.016,101.0,102.0,101.0,13.3,1505.2,334.3,-0.7,1.8,2470.802,13.29,0.013,243.4
2022-09-29T05:40:03,42.805,6.029,-0.028,-0.008,-0.016,102.0,101.0,101.0,13.3,1505.2,325.5,-0.8,1.9,2470.77,13.29,0.029,254.1
2022-09-29T05:43:03,42.805,6.029,-0.004,-0.003,-0.003,103.0,102.0,98.0,13.3,1505.2,327.3,-0.7,1.8,2470.783,13.29,0.005,233.1
2022-09-29T05:46:03,42.805,6.029,-0.029,0.0,-0.015,100.0,101.0,101.0,13.4,1505.2,326.1,-0.7,1.8,2470.812,13.29,0.028,270.0
2022-09-29T05:49:03,42.805,6.029,-0.012,-0.007,0.018,101.0,102.0,99.0,13.4,1505.2,322.2,-0.8,1.8,2470.809,13.29,0.013,239.7
2022-09-29T05:52:02,42.805,6.029,-0.006,-0.018,-0.005,102.0,102.0,101.0,13.4,1505.2,323.7,-0.8,1.8,2470.793,13.29,0.018,198.4
2022-09-29T05:55:03,42.805,6.029,-0.029,-0.004,0.003,102.0,101.0,101.0,13.3,1505.2,327.9,-0.8,1.8,2470.774,13.29,0.029,262.2
2022-09-29T05:58:03,42.805,6.029,0.001,0.017,0.009,101.0,101.0,99.0,13.3,1505.2,320.9,-0.8,1.8,2470.817,13.29,0.017,3.4
2022-09-29T06:04:03,42.805,6.029,0.008,0.005,0.002,103.0,101.0,101.0,13.4,1505.2,320.1,-0.8,1.8,2470.907,13.29,0.009,58.0
2022-09-29T06:07:02,42.805,6.029,-0.008,-0.004,-0.001,103.0,101.0,99.0,13.4,1505.2,327.0,-0.8,1.8,2470.929,13.29,0.008,243.4
2022-09-29T06:10:03,42.805,6.029,-0.019,0.0,0.013,103.0,103.0,100.0,13.3,1505.2,330.8,-0.8,1.8,2470.93,13.29,0.019,270.0
2022-09-29T06:13:03,42.805,6.029,0.008,-0.011,0.012,100.0,101.0,99.0,13.3,1505.2,331.2,-0.8,1.8,2470.982,13.29,0.013,144.0
2022-09-29T06:16:02,42.805,6.029,-0.024,0.008,0.029,102.0,102.0,100.0,13.4,1505.2,316.2,-0.8,1.8,2470.97,13.29,0.025,288.4
2022-09-29T06:19:03,42.805,6.029,-0.012,0.008,0.002,102.0,102.0,100.0,13.3,1505.2,328.7,-0.7,1.8,2470.954,13.29,0.014,303.7
2022-09-29T06:22:02,42.805,6.029,-0.019,0.003,0.011,102.0,101.0,100.0,13.3,1505.2,327.2,-0.7,1.8,2471.013,13.29,0.019,279.0
2022-09-29T06:25:03,42.805,6.029,-0.005,0.007,0.028,102.0,102.0,100.0,13.3,1505.2,323.6,-0.8,1.8,2471.007,13.29,0.008,324.5
2022-09-29T06:28:03,42.805,6.029,-0.007,0.007,0.021,101.0,101.0,100.0,13.4,1505.2,320.5,-0.8,1.8,2470.957,13.29,0.009,315.0
2022-09-29T06:31:02,42.805,6.029,-0.027,0.032,0.014,101.0,103.0,100.0,13.4,1505.2,332.2,-0.8,1.9,2471.002,13.29,0.041,319.8
2022-09-29T06:34:03,42.805,6.029,-0.004,0.002,0.013,101.0,102.0,101.0,13.3,1505.2,321.4,-0.8,1.8,2470.993,13.29,0.004,296.6
2022-09-29T06:37:03,42.805,6.029,-0.034,0.0,0.03,102.0,101.0,100.0,13.3,1505.2,326.3,-0.7,1.8,2471.019,13.29,0.034,270.0
2022-09-29T06:40:03,42.805,6.029,-0.018,-0.004,-0.007,103.0,102.0,100.0,13.3,1505.2,323.2,-0.8,1.8,2470.997,13.29,0.018,257.5
2022-09-29T06:43:03,42.805,6.029,-0.009,0.0,0.009,101.0,102.0,100.0,13.4,1505.2,323.2,-0.7,1.8,2471.037,13.29,0.009,270.0
2022-09-29T06:46:03,42.805,6.029,-0.017,0.001,0.027,100.0,101.0,100.0,13.3,1505.2,322.2,-0.8,1.8,2471.012,13.29,0.017,273.4
2022-09-29T06:49:03,42.805,6.029,-0.01,0.009,0.019,103.0,100.0,101.0,13.4,1505.2,324.3,-0.7,1.8,2471.03,13.29,0.013,312.0
2022-09-29T06:52:03,42.805,6.029,0.01,-0.015,0.025,101.0,102.0,100.0,13.3,1505.2,331.2,-0.8,1.8,2471.048,13.29,0.018,146.3
2022-09-29T06:55:03,42.805,6.029,-0.009,-0.038,-0.014,100.0,102.0,101.0,13.3,1505.2,322.0,-0.8,1.8,2471.026,13.29,0.039,193.3
2022-09-29T06:58:03,42.805,6.029,-0.016,-0.006,0.006,101.0,102.0,100.0,13.4,1505.2,319.7,-0.8,1.8,2471.08,13.29,0.017,249.4
2022-09-29T07:04:02,42.805,6.029,-0.01,0.007,-0.021,103.0,103.0,101.0,13.4,1505.2,327.4,-0.8,1.8,2471.063,13.29,0.012,305.0
2022-09-29T07:07:02,42.805,6.029,0.014,-0.007,0.021,102.0,101.0,99.0,13.4,1505.2,326.3,-0.8,1.8,2471.054,13.29,0.015,116.6
2022-09-29T07:10:03,42.805,6.029,-0.007,-0.014,0.011,101.0,102.0,99.0,13.3,1505.2,327.2,-0.7,1.8,2471.105,13.29,0.015,206.6
2022-09-29T07:13:03,42.805,6.029,-0.017,-0.008,0.012,103.0,101.0,100.0,13.4,1505.2,316.6,-0.7,1.8,2471.047,13.29,0.018,244.8
2022-09-29T07:16:03,42.805,6.029,-0.024,0.007,-0.008,100.0,102.0,101.0,13.4,1505.2,320.6,-0.7,1.8,2471.049,13.29,0.025,286.3
2022-09-29T07:19:03,42.805,6.029,0.007,0.001,0.041,103.0,102.0,99.0,13.4,1505.2,324.0,-0.8,1.8,2471.072,13.29,0.007,81.9
2022-09-29T07:22:03,42.805,6.029,-0.007,0.005,0.035,101.0,102.0,100.0,13.4,1505.2,326.1,-0.7,1.8,2471.068,13.29,0.008,305.5
2022-09-29T07:25:03,42.805,6.029,-0.009,-0.008,-0.002,101.0,102.0,101.0,13.3,1505.2,323.1,-0.7,1.8,2471.071,13.29,0.012,228.4
2022-09-29T07:28:03,42.805,6.029,-0.015,0.005,-0.003,101.0,102.0,100.0,13.3,1505.2,329.8,-0.8,1.8,2471.029,13.29,0.015,288.4
2022-09-29T07:31:03,42.805,6.029,0.007,-0.006,0.016,103.0,102.0,100.0,13.4,1505.2,319.1,-0.8,1.8,2471.073,13.29,0.009,130.6
2022-09-29T07:34:03,42.805,6.029,-0.023,-0.007,-0.015,103.0,106.0,100.0,13.4,1505.2,320.6,-0.7,1.8,2471.068,13.29,0.024,253.1
2022-09-29T07:37:02,42.805,6.029,-0.01,-0.018,-0.012,101.0,102.0,101.0,13.3,1505.2,318.6,-0.8,1.8,2471.062,13.29,0.02,209.1
2022-09-29T07:40:03,42.805,6.029,0.003,0.005,0.0,102.0,102.0,100.0,13.4,1505.2,328.8,-0.7,1.8,2471.108,13.29,0.005,31.0
2022-09-29T07:43:03,42.805,6.029,-0.003,0.009,-0.023,104.0,102.0,100.0,13.4,1505.2,327.0,-0.8,1.8,2471.076,13.29,0.009,341.6
2022-09-29T07:46:03,42.805,6.029,-0.022,-0.013,-0.014,101.0,101.0,101.0,13.4,1505.2,319.3,-0.7,1.8,2471.086,13.29,0.025,239.4
2022-09-29T07:49:03,42.805,6.029,0.01,0.021,0.065,103.0,101.0,100.0,13.4,1505.2,334.3,-0.8,1.8,2471.096,13.29,0.023,25.5
2022-09-29T07:52:03,42.805,6.029,0.0,0.0,0.011,101.0,101.0,101.0,13.4,1505.2,327.4,-0.7,1.8,2471.117,13.29,0.0,0.0
2022-09-29T07:55:03,42.805,6.029,0.008,-0.017,0.034,102.0,102.0,100.0,13.4,1505.2,321.5,-0.7,1.8,2471.081,13.29,0.018,154.8
2022-09-29T07:58:03,42.805,6.029,-0.019,0.011,0.004,102.0,102.0,101.0,13.4,1505.2,330.5,-0.8,1.8,2471.032,13.29,0.021,300.1
2022-09-29T08:04:02,42.805,6.029,-0.009,0.001,0.024,102.0,100.0,100.0,13.3,1505.2,326.4,-0.8,1.9,2471.081,13.29,0.009,276.3
2022-09-29T08:07:03,42.805,6.029,-0.018,0.001,0.006,101.0,103.0,100.0,13.4,1505.2,318.3,-0.8,1.8,2471.124,13.29,0.018,273.2
2022-09-29T08:10:03,42.805,6.029,-0.026,-0.008,-0.015,102.0,101.0,99.0,13.3,1505.2,331.2,-0.8,1.8,2471.11,13.29,0.027,252.9
2022-09-29T08:13:03,42.805,6.029,-0.026,-0.005,-0.002,102.0,101.0,100.0,13.3,1505.2,324.2,-0.8,1.8,2471.123,13.29,0.026,259.1
2022-09-29T08:16:03,42.805,6.029,0.0,-0.021,-0.015,101.0,101.0,101.0,13.3,1505.2,325.3,-0.7,1.8,2471.11,13.29,0.021,180.0
2022-09-29T08:19:03,42.805,6.029,-0.014,0.015,0.009,101.0,101.0,100.0,13.4,1505.2,330.4,-0.7,1.8,2471.062,13.29,0.02,317.0
2022-09-29T08:22:03,42.805,6.029,-0.016,-0.018,-0.043,102.0,102.0,100.0,13.3,1505.2,327.4,-0.8,1.8,2471.126,13.29,0.024,221.6
2022-09-29T08:25:03,42.805,6.029,-0.024,-0.014,0.0,102.0,102.0,101.0,13.3,1505.2,327.9,-0.7,1.8,2471.088,13.29,0.027,239.7
2022-09-29T08:28:03,42.805,6.029,-0.029,-0.015,-0.007,101.0,101.0,100.0,13.3,1505.2,331.4,-0.8,1.8,2471.138,13.29,0.032,242.6
2022-09-29T08:31:03,42.805,6.029,0.007,-0.008,0.015,100.0,101.0,100.0,13.4,1505.2,333.4,-0.8,1.8,2471.103,13.29,0.01,138.8
2022-09-29T08:34:02,42.805,6.029,-0.02,0.008,0.035,101.0,102.0,98.0,13.3,1505.2,331.3,-0.8,1.8,2471.103,13.29,0.021,291.8
2022-09-29T08:37:03,42.805,6.029,-0.025,0.003,0.029,99.0,101.0,100.0,13.4,1505.2,331.5,-0.7,1.8,2471.117,13.29,0.025,276.8
2022-09-29T08:40:03,42.805,6.029,-0.006,0.0,0.01,101.0,101.0,100.0,13.4,1505.2,321.5,-0.7,1.8,2471.155,13.29,0.006,270.0
2022-09-29T08:43:03,42.805,6.029,-0.014,-0.004,0.0,100.0,101.0,101.0,13.3,1505.2,326.9,-0.8,1.8,2471.079,13.29,0.014,254.1
2022-09-29T08:46:03,42.805,6.029,0.005,-0.01,0.003,101.0,102.0,100.0,13.4,1505.2,334.0,-0.8,1.8,2471.099,13.29,0.011,153.4
2022-09-29T08:49:03,42.805,6.029,-0.022,-0.002,0.021,101.0,103.0,99.0,13.4,1505.2,317.8,-0.7,1.8,2471.076,13.29,0.022,264.8
2022-09-29T08:52:03,42.805,6.029,-0.009,0.0,0.0,102.0,102.0,100.0,13.4,1505.2,329.9,-0.7,1.8,2471.115,13.29,0.009,270.0
2022-09-29T08:55:03,42.805,6.029,-0.024,-0.007,0.001,100.0,100.0,100.0,13.4,1505.2,322.3,-0.7,1.8,2471.118,13.29,0.025,253.7
2022-09-29T08:58:03,42.805,6.029,-0.013,-0.012,0.005,100.0,101.0,100.0,13.4,1505.2,318.1,-0.8,1.8,2471.076,13.29,0.017,227.3
2022-09-29T09:04:02,42.805,6.029,-0.026,0.018,0.047,100.0,101.0,99.0,13.4,1505.2,317.8,-0.8,1.8,2471.163,13.29,0.031,304.7
2022-09-29T09:07:03,42.805,6.029,-0.017,-0.02,-0.008,101.0,101.0,99.0,13.3,1505.2,325.0,-0.8,1.8,2471.125,13.29,0.026,220.4
2022-09-29T09:10:03,42.805,6.029,-0.042,0.005,0.013,101.0,101.0,100.0,13.4,1505.2,330.9,-0.8,1.8,2471.144,13.29,0.042,276.8
2022-09-29T09:13:03,42.805,6.029,-0.027,-0.009,0.005,100.0,101.0,100.0,13.4,1505.2,326.1,-0.8,1.8,2471.144,13.29,0.028,251.6
2022-09-29T09:16:03,42.805,6.029,-0.007,-0.011,0.01,101.0,100.0,100.0,13.3,1505.2,321.8,-0.8,1.8,2471.131,13.29,0.013,212.5
2022-09-29T09:19:03,42.805,6.029,-0.015,-0.014,-0.039,101.0,102.0,100.0,13.4,1505.2,326.8,-0.7,1.8,2471.114,13.29,0.02,227.0
2022-09-29T09:22:03,42.805,6.029,-0.009,0.0,0.01,101.0,100.0,100.0,13.4,1505.2,324.6,-0.8,1.8,2471.11,13.29,0.009,270.0
2022-09-29T09:25:03,42.805,6.029,-0.017,-0.006,-0.037,101.0,101.0,100.0,13.4,1505.2,327.9,-0.8,1.8,2471.124,13.29,0.018,250.6
2022-09-29T09:28:03,42.805,6.029,-0.029,-0.005,0.005,100.0,101.0,99.0,13.4,1505.2,325.3,-0.8,1.8,2471.135,13.29,0.029,260.2
2022-09-29T09:31:03,42.805,6.029,-0.017,0.009,0.014,101.0,101.0,99.0,13.4,1505.2,323.6,-0.8,1.8,2471.126,13.29,0.019,297.9
2022-09-29T09:34:03,42.805,6.029,-0.009,-0.014,-0.011,100.0,100.0,100.0,13.3,1505.2,326.8,-0.8,1.8,2471.093,13.29,0.016,212.7
2022-09-29T09:37:03,42.805,6.029,-0.02,0.0,-0.002,101.0,101.0,100.0,13.3,1505.2,323.0,-0.7,1.8,2471.068,13.29,0.02,270.0
2022-09-29T09:40:03,42.805,6.029,-0.032,-0.012,-0.026,99.0,101.0,100.0,13.3,1505.2,320.6,-0.8,1.8,2471.115,13.29,0.034,249.4
2022-09-29T09:43:03,42.805,6.029,-0.002,-0.009,0.015,100.0,101.0,100.0,13.3,1505.2,320.9,-0.7,1.8,2471.1,13.29,0.009,192.5
2022-09-29T09:46:03,42.805,6.029,-0.018,-0.005,-0.007,103.0,100.0,102.0,13.4,1505.2,317.8,-0.7,1.8,2471.072,13.29,0.018,254.5
2022-09-29T09:49:03,42.805,6.029,0.0,-0.006,0.017,102.0,101.0,99.0,13.4,1505.2,329.7,-0.7,1.8,2471.085,13.29,0.006,180.0
2022-09-29T09:52:03,42.805,6.029,-0.001,-0.008,0.018,100.0,102.0,100.0,13.4,1505.2,322.2,-0.7,1.8,2471.108,13.29,0.008,187.1
2022-09-29T09:55:03,42.805,6.029,-0.008,-0.008,0.009,102.0,100.0,100.0,13.3,1505.2,320.2,-0.7,1.8,2471.049,13.29,0.011,225.0
2022-09-29T09:58:03,42.805,6.029,-0.026,-0.009,-0.014,101.0,100.0,101.0,13.4,1505.2,325.6,-0.8,1.8,2471.094,13.29,0.027,250.9
2022-09-29T10:04:02,42.805,6.029,0.005,-0.026,-0.033,102.0,101.0,100.0,13.4,1505.2,323.4,-0.8,1.8,2471.114,13.29,0.026,169.1
2022-09-29T10:07:03,42.805,6.029,-0.026,-0.003,-0.004,101.0,100.0,99.0,13.4,1505.2,331.5,-0.8,1.8,2471.115,13.29,0.026,263.4
2022-09-29T10:10:03,42.805,6.029,-0.018,0.0,-0.012,101.0,101.0,100.0,13.4,1505.2,322.1,-0.8,1.8,2471.104,13.29,0.018,270.0
2022-09-29T10:13:03,42.805,6.029,-0.045,-0.013,-0.016,101.0,100.0,100.0,13.3,1505.2,320.2,-0.8,1.8,2471.076,13.29,0.046,253.9
2022-09-29T10:16:03,42.805,6.029,-0.022,-0.002,-0.001,101.0,100.0,99.0,13.3,1505.2,319.7,-0.8,1.8,2471.107,13.29,0.022,264.8
2022-09-29T10:19:03,42.805,6.029,-0.044,0.004,0.015,101.0,101.0,100.0,13.3,1505.2,332.8,-0.8,1.8,2471.082,13.29,0.044,275.2
2022-09-29T10:22:03,42.805,6.029,-0.026,0.018,0.019,100.0,101.0,101.0,13.4,1505.2,323.3,-0.8,1.8,2471.123,13.29,0.031,304.7
2022-09-29T10:25:03,42.805,6.029,-0.006,-0.007,0.008,101.0,102.0,99.0,13.3,1505.2,330.5,-0.7,1.8,2471.089,13.29,0.009,220.6
2022-09-29T10:28:03,42.805,6.029,-0.007,-0.002,0.01,101.0,102.0,99.0,13.3,1505.2,319.2,-0.7,1.8,2471.118,13.29,0.007,254.1
2022-09-29T10:31:03,42.805,6.029,-0.035,0.012,-0.008,102.0,101.0,100.0,13.4,1505.2,328.6,-0.8,1.8,2471.09,13.29,0.037,288.9
2022-09-29T10:34:03,42.805,6.029,-0.025,0.002,0.023,102.0,100.0,99.0,13.4,1505.2,321.1,-0.8,1.8,2471.065,13.29,0.025,274.6
2022-09-29T10:37:03,42.805,6.029,-0.009,-0.005,0.018,99.0,102.0,100.0,13.4,1505.2,326.4,-0.7,1.8,2471.123,13.29,0.01,240.9
2022-09-29T10:40:03,42.805,6.029,-0.015,0.004,-0.007,100.0,100.0,102.0,13.4,1505.2,327.5,-0.8,1.8,2471.062,13.29,0.015,284.9
2022-09-29T10:43:03,42.805,6.029,-0.014,0.007,-0.008,101.0,102.0,99.0,13.4,1505.2,325.9,-0.7,1.8,2471.053,13.29,0.015,296.6
2022-09-29T10:46:03,42.805,6.029,-0.002,-0.03,-0.014,100.0,101.0,99.0,13.3,1505.2,327.3,-0.8,1.8,2471.05,13.29,0.03,183.8
2022-09-29T10:49:03,42.805,6.029,-0.012,0.016,0.007,101.0,101.0,100.0,13.3,1505.2,316.7,-0.8,1.8,2471.075,13.29,0.02,323.1
2022-09-29T10:52:03,42.805,6.029,-0.006,-0.026,-0.036,103.0,101.0,100.0,13.4,1505.2,319.5,-0.7,1.8,2471.066,13.29,0.026,193.0
2022-09-29T10:55:03,42.805,6.029,0.001,-0.013,-0.014,102.0,101.0,101.0,13.4,1505.2,320.1,-0.8,1.8,2471.026,13.29,0.013,175.6